RADUGA-1 5 (26477 NORAD) Tracking and Keplerian Element Data

This shows tracking and keplerian element data for the satellite.

Feedback or suggestion? Click here.




ElementValue
Catalog26477
NameRADUGA-1 5
Epoch Orbit8942
Epoch Day34.55031582
Epoch Year2025
RAAN11.7037
Inclination13.6814
Eccentricity0.0001519
Argument of Perigee80.2266
Mean Anonmoly288.5707
Mean Motion1.00307252
Decay Rate9.2E-07
L11 26477U 00049A 25034.55031582 .00000092 00000+0 00000+0 0 9991
L22 26477 13.6814 11.7037 0001519 80.2266 288.5707 1.00307252 89420



Live tracking and technical data element details for RADUGA-1 5 (NORAD 26477). RADUGA-1 5 can be tracked NOW for your location showing map with azimuth and elevation plus other details from your city location.







IsCatalogInMostPopularTable: catalog: 26477, numindb: 324
Update: records affected: 1



GetName: 26477 RADUGA-1 5

Hit Count: updated at: Thu, 15 May 2025 09:47:36 GMT